RH
6 6 6 6 6 6 5 5 5 6 7 8 9 10 9 9 9 9 9 9 8 9 15 19 22 24 23 21 22 23 21 20 20 21 20 20 20 21 21 21 22 21 21 24 26 24 24 25 23 23 26 27 28 33 34 35 37 34 33 34 34 36 39 38 36 33 31 33 36 37 39 41 43 47 52 57 61 62 68 74 75 78 79 77 80 78 68
6 6 6 6 6 6 5 6 6 7 8 8 9 9 8 8 8 9 9 9 8 11 15 18 22 23 19 19 21 20 20 21 21 20 20 19 20 22 22 21 19 21 25 26 25 23 22 23 23 24 27 27 31 35 34 35 37 34 33 35 35 36 39 39 38 38 36 36 36 36 39 43 46 50 54 58 60 61 63 65 71 78 77 76 82 81 69
6 6 6 6 6 6 6 7 7 8 8 8 8 8 8 8 8 8 9 8 8 11 14 17 23 24 19 17 19 19 19 21 21 20 21 21 22 21 21 21 22 24 26 25 27 27 23 21 24 27 26 28 33 35 34 36 38 36 35 37 36 36 39 42 45 50 52 51 49 46 44 46 48 51 57 61 62 63 64 67 73 78 76 76 82 82 71
6 6 6 6 7 7 7 7 7 7 7 8 9 9 8 8 9 8 8 7 8 10 11 12 18 22 20 17 17 19 20 19 20 21 20 22 23 22 22 23 22 23 22 23 27 29 25 24 27 28 29 30 32 34 36 36 37 38 37 37 37 39 42 43 46 50 53 52 50 47 47 50 51 53 58 62 64 67 69 74 79 80 78 75 74 78 76
7 7 7 7 7 6 6 6 6 7 7 8 8 8 7 9 11 10 9 8 8 11 11 10 13 16 17 15 15 18 20 19 20 21 20 22 23 23 24 23 21 20 21 23 25 27 27 26 26 28 31 32 31 33 37 38 38 38 38 37 39 42 43 44 47 48 47 47 46 46 49 52 52 57 60 60 63 67 70 74 78 79 83 79 69 73 79
7 6 6 6 6 6 6 6 6 7 7 8 8 8 8 9 11 11 10 10 11 13 12 11 14 16 18 19 19 20 20 18 18 21 22 23 24 22 20 21 22 24 23 22 23 25 27 27 27 29 32 34 34 34 36 39 39 38 38 37 38 42 45 45 47 47 46 47 47 47 49 51 53 58 59 58 61 65 67 70 75 80 88 85 74 74 78
6 6 6 5 5 5 5 5 6 6 7 7 7 7 8 9 10 9 9 10 13 15 13 12 15 17 20 23 21 20 19 16 19 24 23 22 23 21 17 17 24 30 28 24 24 26 26 26 28 31 32 33 35 34 34 36 37 37 39 38 37 41 47 48 48 47 45 45 47 47 48 51 53 55 56 56 59 64 67 69 74 77 78 77 75 74 71
5 4 5 4 4 5 5 5 6 6 6 6 6 7 7 7 8 8 9 11 12 14 13 13 15 17 18 18 18 22 21 17 19 24 21 19 20 21 19 19 26 33 31 26 25 26 26 25 27 31 33 34 36 35 33 36 38 39 42 43 39 40 45 49 50 47 43 43 46 48 47 49 51 52 54 57 58 62 67 69 72 74 73 72 72 71 65
4 4 4 4 4 5 5 5 6 5 6 6 6 6 6 6 6 6 8 11 13 13 13 14 17 16 15 15 17 21 23 19 20 22 22 21 21 21 21 22 28 33 32 31 30 27 27 27 28 30 31 33 34 33 33 37 41 43 46 47 45 44 47 50 51 50 45 43 45 45 44 47 51 53 55 58 62 65 68 71 74 77 76 74 71 69 64
3 4 4 4 4 5 4 5 5 5 5 5 5 5 5 5 6 5 7 11 13 13 13 14 14 12 12 16 18 20 22 22 21 20 21 24 24 23 23 23 26 29 28 29 30 28 28 29 30 31 33 33 33 33 35 37 41 44 48 49 48 49 48 48 52 52 45 42 45 45 42 46 53 56 56 58 64 69 71 72 72 74 76 76 72 67 60
3 3 4 3 4 4 4 4 4 4 5 4 4 5 4 5 5 5 7 10 11 12 12 12 12 12 14 18 21 22 23 24 22 18 19 23 25 25 24 24 26 27 27 27 28 28 30 32 33 34 36 36 36 37 38 39 40 44 46 46 50 53 50 49 54 53 47 45 46 43 43 49 55 56 56 59 66 72 74 72 68 68 70 68 63 59 53
4 4 4 4 4 4 3 4 4 4 4 4 4 4 4 4 5 4 7 11 12 13 13 13 14 15 15 16 18 20 22 23 22 21 21 24 25 26 25 25 25 25 26 27 28 30 32 32 35 38 38 37 39 39 39 41 42 43 43 44 48 52 51 51 54 56 53 51 50 50 51 54 55 55 57 61 63 64 64 62 63 66 66 61 59 58 53
5 5 4 4 4 4 4 4 4 3 4 4 4 4 4 4 5 4 6 10 13 13 14 15 17 17 15 15 17 18 20 21 22 23 24 24 25 26 26 26 25 25 26 28 28 30 31 32 35 38 37 36 38 39 40 43 45 44 43 43 45 49 52 52 52 56 54 54 62 66 58 51 53 56 57 59 62 64 66 65 66 70 68 63 62 58 49
5 5 5 4 4 4 4 4 4 4 4 4 3 4 4 3 4 4 4 8 13 14 13 15 16 17 16 15 16 18 20 20 21 23 25 25 25 26 25 25 25 25 27 28 27 28 30 34 39 40 38 39 39 36 36 40 45 46 45 44 45 50 54 51 51 56 57 57 62 62 53 50 56 58 57 60 67 75 80 77 72 71 69 64 61 55 42
5 5 5 5 5 5 4 4 4 4 4 4 3 3 3 3 4 4 4 7 12 14 13 12 12 14 15 14 15 17 19 21 22 23 26 26 25 25 24 24 25 26 27 27 29 32 32 33 39 39 37 38 38 35 34 36 41 44 46 46 46 48 52 53 54 58 61 63 64 61 58 59 60 59 58 62 66 69 73 74 72 69 66 62 58 50 37
5 5 5 5 5 5 5 4 5 4 4 4 4 3 4 3 3 4 4 5 8 10 10 10 10 11 12 14 15 15 17 21 23 24 26 27 25 25 26 25 25 27 27 25 30 38 36 32 35 37 35 35 35 35 36 37 38 42 45 46 47 50 54 58 59 61 62 65 70 72 67 63 62 62 63 65 66 63 62 64 65 63 62 61 56 45 33
4 4 4 5 5 5 5 5 5 5 4 4 4 4 4 4 3 4 4 4 7 11 11 10 10 10 11 14 16 15 16 20 22 23 26 27 26 25 26 25 26 28 27 27 34 41 39 36 37 37 36 36 35 35 38 39 40 42 44 46 51 55 58 60 60 62 64 66 71 74 70 64 63 62 62 64 66 65 68 71 67 61 63 62 52 39 32
4 4 4 4 4 5 5 5 5 5 4 5 4 4 4 4 3 4 4 3 7 12 12 10 10 10 10 12 14 14 16 19 21 23 25 26 26 26 25 25 27 27 26 31 40 40 35 34 37 37 36 36 35 36 39 41 42 43 44 47 54 58 60 59 59 61 64 68 72 72 69 66 65 64 65 65 62 63 75 82 73 66 66 59 45 35 33
4 4 4 4 4 4 5 5 5 5 5 5 5 4 5 5 4 4 4 3 5 10 12 11 11 11 10 11 13 15 16 18 20 24 26 25 25 27 26 25 27 27 26 32 39 38 32 33 37 38 38 39 39 39 39 41 43 44 45 48 54 57 58 59 60 61 64 67 69 68 65 62 62 64 64 64 66 72 78 77 71 70 66 53 39 35 35
4 4 3 4 4 4 5 5 5 5 5 5 5 5 4 5 4 4 4 4 4 9 12 12 12 12 12 12 14 15 15 17 20 23 25 24 25 26 26 25 26 27 28 29 33 35 33 33 37 38 39 42 42 40 40 44 46 44 45 49 52 54 56 60 62 62 63 66 71 73 71 66 63 64 64 64 70 76 75 70 70 69 60 46 38 37 38
4 4 4 4 4 5 5 6 6 6 6 6 6 6 5 5 5 4 5 4 4 8 12 12 12 12 12 12 14 14 14 17 20 22 23 24 26 26 26 26 26 27 28 28 29 32 33 36 40 39 39 41 41 40 42 47 47 45 46 51 53 53 56 63 66 66 67 72 75 76 73 69 68 70 72 71 71 72 72 73 74 66 53 44 42 41 39
7 6 6 5 6 6 6 6 6 7 7 7 7 7 6 6 5 5 5 4 5 8 11 12 12 12 12 13 14 14 15 17 20 22 23 25 26 26 25 26 26 27 28 28 29 31 34 38 39 39 39 41 42 43 44 46 48 48 47 49 52 54 55 59 63 66 67 68 68 65 63 64 67 68 68 68 68 69 72 75 74 64 51 45 44 42 37
9 8 7 6 5 5 5 6 6 6 7 7 8 8 7 7 6 6 6 5 6 9 11 12 12 13 13 14 15 15 15 17 20 23 24 25 26 26 27 27 27 28 28 28 29 31 35 38 37 38 40 41 44 46 45 44 49 51 48 48 51 52 52 54 59 62 62 60 60 61 61 62 64 65 64 65 67 69 71 73 69 59 51 47 45 40 33
8 8 7 6 5 5 5 5 5 5 6 6 7 7 8 8 8 7 6 6 7 9 12 13 13 13 14 14 15 15 16 17 21 22 24 25 26 26 27 27 27 29 29 29 29 30 33 36 37 37 39 41 44 47 45 44 50 51 49 52 54 51 50 54 57 61 62 61 61 63 64 64 65 66 65 66 68 69 71 72 66 57 50 46 41 34 27
8 8 8 8 8 6 6 7 6 6 6 5 6 7 7 8 8 8 7 7 7 9 13 15 14 14 15 15 15 16 16 18 21 23 24 24 24 25 26 26 28 29 29 28 29 30 32 36 38 40 40 40 43 46 45 44 48 48 49 54 55 51 51 54 57 59 61 60 59 61 63 64 66 66 66 68 70 71 72 71 64 54 47 41 34 28 25
10 10 10 11 11 10 9 10 9 9 8 7 7 8 8 9 9 9 8 9 8 9 14 18 17 16 16 16 15 16 17 19 21 23 23 24 25 25 26 27 27 29 29 29 30 31 33 36 40 43 43 40 41 46 47 45 45 47 49 51 50 49 52 55 56 58 59 59 59 61 63 64 65 66 68 71 72 72 73 72 61 50 44 39 31 26 25
13 13 13 13 13 13 12 12 12 12 10 10 10 10 10 10 11 10 9 9 10 10 14 18 18 16 16 17 17 17 18 19 22 24 24 25 25 26 26 27 28 29 29 30 31 32 35 37 39 42 43 42 43 46 48 45 45 49 52 50 48 50 54 56 58 60 62 62 61 62 64 66 66 67 70 72 71 70 71 66 53 43 40 37 31 27 26
14 15 15 14 15 15 14 13 14 15 13 11 11 12 12 11 11 10 10 9 10 12 14 17 17 16 17 17 17 18 19 21 23 24 25 25 26 26 27 28 29 30 30 31 32 34 36 38 39 41 43 43 44 46 46 46 48 51 52 50 49 50 52 55 59 61 60 59 59 61 65 67 67 69 71 72 71 70 68 60 48 39 36 33 30 29 28
16 16 16 15 16 17 15 13 15 17 16 13 12 12 12 12 11 10 10 10 11 12 14 16 18 18 18 18 18 19 21 23 24 25 25 26 26 27 27 29 30 32 32 32 32 34 36 37 39 42 43 43 45 46 46 48 51 51 48 47 48 49 51 52 55 57 57 57 59 62 64 66 68 70 71 71 71 68 63 55 45 37 33 32 32 31 29
16 16 17 17 17 18 16 14 14 17 17 15 14 13 13 13 12 11 11 11 13 13 14 17 20 20 18 18 19 20 22 24 26 26 26 26 27 28 28 30 31 32 33 33 33 34 37 39 41 43 45 44 45 47 48 51 55 51 45 44 48 50 51 52 54 55 57 59 60 62 64 66 69 70 70 69 69 66 60 52 44 37 33 33 33 32 30
18 17 18 18 18 18 16 14 14 17 18 16 14 14 14 13 13 13 12 13 14 14 14 17 20 20 19 19 20 22 25 26 27 27 27 27 28 29 30 30 32 32 33 34 34 35 38 41 43 46 46 45 46 49 51 53 55 52 46 45 48 50 51 53 55 56 58 60 61 63 65 67 69 70 69 68 68 66 59 52 45 38 35 34 33 33 32
18 18 18 19 18 17 16 14 14 16 18 17 15 14 13 13 13 13 13 14 15 14 15 18 20 20 20 21 23 24 26 27 27 27 28 28 28 30 30 31 32 33 33 34 35 37 40 42 44 46 47 46 48 53 55 55 54 51 46 44 48 51 52 54 56 58 60 61 62 64 66 69 70 70 66 66 68 66 59 52 46 41 37 35 35 34 33
18 18 19 18 17 17 17 16 15 17 18 17 15 14 13 13 13 13 13 14 16 15 15 18 21 22 21 23 25 26 27 28 28 27 28 29 29 30 31 31 32 33 34 35 36 38 40 43 45 46 47 46 48 53 57 56 52 48 45 46 48 51 54 55 57 59 61 62 64 66 67 69 70 68 64 65 68 65 58 53 49 43 38 36 35 35 34
19 19 18 17 17 18 20 19 18 18 18 17 16 16 15 15 15 15 15 16 16 16 16 18 23 26 25 26 28 28 27 27 28 28 29 30 30 31 32 33 33 33 34 35 37 39 42 44 45 46 47 47 48 51 53 52 48 45 46 48 50 52 55 56 57 59 62 64 66 67 68 70 70 66 63 65 66 62 58 56 52 45 40 37 36 35 35
20 19 18 18 18 20 21 20 20 19 19 18 18 18 18 18 17 17 18 18 17 18 18 20 25 29 28 28 30 30 27 28 29 29 30 32 32 32 32 33 34 34 35 36 39 41 42 43 44 45 47 48 51 52 51 49 46 45 46 48 50 53 56 57 58 60 63 66 68 69 70 71 69 65 63 64 64 61 60 58 54 48 43 38 36 36 36
21 19 18 19 21 22 22 22 21 20 19 19 18 18 19 19 19 19 19 19 20 21 22 24 29 32 29 28 28 28 28 29 30 30 32 33 33 33 33 34 35 36 37 38 40 42 43 43 44 47 49 50 50 49 47 46 45 44 45 46 48 51 55 57 59 62 64 67 70 71 71 71 68 64 64 65 62 60 60 59 56 52 46 41 38 37 36
20 19 20 21 22 23 23 23 22 20 20 20 19 19 19 20 20 20 21 22 23 24 25 27 32 33 31 29 29 29 30 31 31 32 33 33 33 33 35 37 38 38 39 40 41 42 43 43 44 49 52 51 47 45 44 44 44 44 43 44 47 50 53 57 60 63 66 70 72 73 73 71 67 64 65 65 62 59 59 59 58 55 50 44 40 38 37
21 22 22 23 23 24 24 23 22 21 21 20 20 20 21 21 22 23 24 25 26 27 27 28 31 32 32 31 31 30 31 32 32 32 32 34 34 35 36 38 39 39 40 41 41 41 41 44 48 52 52 48 43 42 43 44 43 42 43 44 46 49 52 55 59 63 67 71 73 74 74 72 66 64 66 66 62 59 59 59 59 57 53 47 43 40 38
23 24 24 23 23 24 24 23 23 22 21 21 22 22 23 24 25 26 26 27 28 29 30 30 32 33 33 33 32 32 33 33 34 35 35 35 36 35 36 38 39 38 39 41 40 39 40 45 50 53 52 48 43 41 41 42 41 41 43 44 46 49 51 54 56 60 64 69 72 74 74 72 66 65 67 67 63 60 59 60 61 60 56 51 46 42 40
24 25 24 23 24 24 24 23 23 23 22 23 24 24 26 27 27 28 30 31 31 31 31 32 33 33 33 33 34 35 35 34 36 38 37 38 38 37 37 39 38 37 39 41 40 39 40 44 48 50 49 45 42 40 39 41 41 42 43 45 47 50 52 54 55 57 60 64 69 72 73 71 67 66 68 67 63 61 61 61 62 62 59 54 49 44 42
25 24 24 24 24 24 24 24 24 24 24 25 26 27 28 29 29 30 31 32 33 32 32 32 32 33 34 34 36 37 36 36 38 39 39 39 40 39 38 39 37 36 38 41 42 42 42 44 48 50 47 41 39 39 40 42 42 43 45 47 48 50 53 55 56 57 59 62 65 68 70 70 67 67 68 67 64 62 62 62 63 63 61 57 52 47 43
25 24 24 26 26 25 26 26 26 26 26 27 28 30 32 31 31 30 31 31 31 30 30 31 32 34 35 36 36 37 38 39 40 40 41 40 40 39 40 42 40 37 37 40 43 44 44 44 47 48 44 38 38 39 41 42 43 45 47 49 50 51 54 56 58 59 60 61 63 64 65 66 66 67 69 68 64 63 63 64 65 65 63 60 56 50 46
26 24 25 27 28 27 28 28 28 29 30 31 31 33 34 34 33 33 32 31 31 31 31 32 34 35 36 37 38 39 39 40 41 41 40 40 39 39 41 43 41 38 38 40 44 46 46 46 47 44 39 36 38 40 40 41 44 46 48 50 52 53 54 57 59 60 62 62 63 63 63 61 62 65 69 68 65 64 65 66 67 67 66 63 59 54 49
27 25 25 28 29 29 30 32 31 31 33 35 35 34 34 35 36 37 34 32 32 33 33 34 35 36 37 38 39 40 40 41 42 41 39 39 40 42 42 42 43 41 40 41 43 46 47 47 46 41 38 38 39 39 38 40 42 44 46 50 52 53 56 58 59 61 63 64 64 64 62 59 58 62 67 69 66 65 66 68 69 69 68 66 63 58 52
28 27 26 29 32 32 33 34 34 33 34 37 38 39 38 37 38 39 36 33 33 34 35 36 37 38 38 39 40 40 41 41 41 41 40 39 40 41 41 41 43 44 42 43 45 46 45 46 44 40 38 39 39 38 37 37 37 38 41 45 48 51 55 57 59 61 63 65 66 66 64 60 57 59 64 67 66 66 67 69 70 71 71 69 66 61 55
27 28 27 30 32 33 34 36 37 36 36 36 37 39 40 37 36 37 36 35 35 37 37 38 39 40 41 42 42 42 42 42 41 43 42 40 39 40 41 40 40 42 42 44 46 45 44 44 43 40 37 38 39 38 37 36 34 33 35 37 40 44 48 53 57 61 63 64 67 68 67 63 59 58 61 64 65 65 68 70 72 72 72 71 69 65 59
25 27 28 29 31 32 33 35 35 36 36 36 36 37 38 38 37 38 38 38 39 40 41 42 43 43 44 44 43 43 44 44 43 43 43 41 40 41 42 41 42 44 43 41 43 46 46 43 39 37 36 37 36 37 37 37 35 33 32 33 35 38 41 46 52 57 61 63 67 69 69 66 62 60 60 61 62 64 68 71 73 73 73 72 71 69 63
24 25 27 28 30 31 32 32 33 33 34 35 35 35 36 37 37 38 39 40 41 41 42 43 44 44 44 44 43 42 43 43 42 42 43 43 41 41 42 43 44 45 43 41 42 45 44 39 35 35 36 35 34 34 35 36 35 34 33 33 33 35 37 40 44 51 56 60 65 69 71 68 65 63 62 61 60 61 66 71 73 74 73 73 73 71 67
24 25 26 27 28 30 30 30 31 32 31 30 30 31 31 31 31 33 34 35 36 37 37 38 39 40 41 41 40 41 42 43 41 41 42 43 43 43 43 43 41 41 43 43 42 39 36 34 33 33 33 33 32 32 32 33 33 32 32 33 33 34 35 37 39 44 49 52 59 67 72 70 67 65 65 63 60 59 62 68 73 75 74 74 74 73 69
25 26 26 26 27 29 30 31 33 34 33 31 30 30 30 30 30 30 31 31 31 31 32 33 34 35 36 36 37 39 40 40 39 38 39 42 43 42 41 40 39 40 41 40 35 31 31 31 32 32 32 32 32 30 28 29 30 30 31 33 34 35 36 36 38 40 43 46 53 63 70 71 69 67 66 65 62 59 59 64 71 75 75 75 74 74 72
25 25 26 27 28 29 30 31 33 35 35 34 33 33 33 33 32 32 32 32 32 32 32 33 34 35 35 36 36 36 36 36 37 38 39 41 43 42 40 38 37 37 35 31 27 27 28 28 29 31 32 32 31 29 27 27 28 29 30 33 35 35 36 38 39 40 42 44 49 58 66 70 70 68 67 67 65 61 58 60 66 72 76 76 75 75 74
26 26 26 27 27 28 29 30 32 33 34 34 34 34 35 35 34 33 33 33 33 33 32 32 33 35 35 34 33 32 31 32 32 33 34 35 35 35 34 32 30 28 27 26 25 26 26 26 26 28 29 30 30 29 26 26 27 29 30 32 33 34 36 38 40 41 42 43 47 52 60 67 70 69 68 68 68 64 60 59 62 69 74 77 76 76 75